Home   Weather   Portsmouth   Past weeks

Flag for United Kingdom Past Weather in Portsmouth, England, United Kingdom — Yesterday and Last 2 Weeks

Now
50 °F

Cool.


Feels Like: 47 °F
Forecast: 60 / 71 °F
Wind: 7 mph from Southwest

Location: Odiham

Current Time: Aug 20, 2017 at 5:17:56 am

Latest Report: Aug 20, 2017 at 3:50 am


Visibility: N/A

Pressure: 30.18 "Hg

Humidity: 94%

Dew Point: 48 °F

Location of PortsmouthLocation

Past Weather in Portsmouth — Graph

°F

Portsmouth Temperature Yesterday

Maximum temperature yesterday: 66 °F (at 2:50 pm)
Minimum temperature yesterday: 54 °F (at 5:50 am)
Average temperature yesterday: 59 °F

High & Low Weather Summary for the Past Weeks

 TemperatureHumidityPressure
High72 °F (Aug 15, 4:50 pm)100% (Aug 7, 8:50 pm)30.24 "Hg (Aug 7, 8:50 pm)
Low48 °F (Aug 14, 3:50 am)37% (Aug 19, 3:50 pm)29.83 "Hg (Aug 17, 4:50 am)
Average60 °F78%30.03 "Hg
* Reported Aug 5 3:50 am — Aug 20 3:50 am, Portsmouth. Weather by CustomWeather, © 2017

Note: Actual official high and low records may vary slightly from our data, if they occured in-between our weather recording intervals... More about our weather records

Advertising

Portsmouth Weather History for the Previous 24 Hours

Scroll right to see more
 ConditionsComfort  
Time TempWeatherWind HumidityBarometerVisibility
3:50 am
Sun, Aug 20
50 °FCool.7 mph94%30.18 "HgN/A
2:50 am50 °FCool.8 mph88%30.18 "HgN/A
1:50 am50 °FCool.9 mph88%30.18 "HgN/A
12:50 am52 °FCool.9 mph88%30.18 "HgN/A
11:50 pm
Sat, Aug 19
54 °FCool.9 mph82%30.15 "HgN/A
10:50 pm55 °FCool.12 mph77%30.15 "HgN/A
9:50 pm55 °FCool.13 mph72%30.15 "HgN/A
8:50 pm57 °FCool.15 mph67%30.15 "HgN/A
7:50 pm59 °FRefreshingly cool.15 mph51%30.12 "HgN/A
6:50 pm63 °FSunny.21 mph45%30.12 "Hg10 mi
5:50 pm64 °FSunny.21 mph43%30.09 "Hg10 mi
4:50 pm66 °FPassing clouds.23 mph40%30.09 "HgN/A
3:50 pm66 °FPassing clouds.22 mph37%30.09 "HgN/A
2:50 pm66 °FPassing clouds.22 mph46%30.07 "HgN/A
1:50 pm64 °FPassing clouds.18 mph52%30.07 "HgN/A
12:50 pm64 °FScattered clouds.20 mph56%30.07 "HgN/A
11:50 am63 °FScattered clouds.17 mph64%30.07 "HgN/A
10:50 am63 °FScattered clouds.21 mph59%30.04 "HgN/A
9:50 am61 °FPassing clouds.16 mph68%30.04 "HgN/A
8:50 am57 °FPassing clouds.15 mph77%30.04 "HgN/A
7:50 am55 °FPassing clouds.15 mph82%30.01 "HgN/A
6:50 am54 °FPassing clouds.12 mph94%30.01 "HgN/A
5:50 am54 °FPassing clouds.14 mph94%29.98 "HgN/A
Weather by CustomWeather, © 2017

See weather overviewHow to use our weather pages